TimeEST,TemperatureF,Dew PointF,Humidity,Sea Level PressureIn,VisibilityMPH,Wind Direction,Wind SpeedMPH,Gust SpeedMPH,PrecipitationIn,Events,Conditions,WindDirDegrees,DateUTC
12:14 AM,23.0,15.4,73,29.96,10.0,NNW,3.5,-,N/A,,Scattered Clouds,340,2013-11-27 05:14:00
12:33 AM,23.2,15.8,73,29.96,10.0,NW,3.5,-,N/A,,Mostly Cloudy,320,2013-11-27 05:33:00
12:54 AM,24.4,17.4,75,29.95,10.0,NW,5.8,-,N/A,Snow,Light Snow,320,2013-11-27 05:54:00
1:14 AM,24.4,18.3,78,29.95,10.0,NNW,8.1,-,N/A,,Overcast,330,2013-11-27 06:14:00
1:33 AM,24.4,18.3,78,29.94,10.0,NNW,4.6,-,N/A,,Overcast,330,2013-11-27 06:33:00
1:54 AM,24.3,18.5,79,29.95,10.0,NNW,6.9,16.1,N/A,Snow,Light Snow,330,2013-11-27 06:54:00
2:14 AM,23.9,18.3,79,29.95,10.0,NNW,6.9,-,N/A,,Overcast,330,2013-11-27 07:14:00
2:33 AM,23.5,17.4,77,29.96,10.0,NNW,8.1,18.4,N/A,Snow,Light Snow,330,2013-11-27 07:33:00
2:54 AM,23.0,17.2,79,29.96,10.0,NNW,6.9,-,N/A,Snow,Light Snow,330,2013-11-27 07:54:00
3:14 AM,23.0,16.7,77,29.97,10.0,NNW,9.2,-,N/A,,Overcast,340,2013-11-27 08:14:00
3:33 AM,23.0,16.3,76,29.97,10.0,NNW,8.1,17.3,N/A,Snow,Light Snow,330,2013-11-27 08:33:00
3:54 AM,21.9,14.5,73,29.97,10.0,NNW,8.1,16.1,N/A,,Mostly Cloudy,340,2013-11-27 08:54:00
4:14 AM,21.0,13.8,74,29.98,10.0,NNW,6.9,16.1,N/A,,Mostly Cloudy,330,2013-11-27 09:14:00
4:33 AM,20.1,12.2,71,29.99,10.0,NNW,10.4,17.3,N/A,,Mostly Cloudy,340,2013-11-27 09:33:00
4:54 AM,20.1,12.0,71,29.99,10.0,NNW,6.9,-,N/A,,Overcast,330,2013-11-27 09:54:00
5:14 AM,19.6,12.0,72,29.99,10.0,NW,6.9,-,N/A,,Overcast,320,2013-11-27 10:14:00
5:34 AM,19.2,11.8,73,30.00,10.0,NNW,6.9,-,N/A,,Overcast,330,2013-11-27 10:34:00
5:54 AM,19.0,11.3,72,30.00,10.0,NW,3.5,-,N/A,,Overcast,320,2013-11-27 10:54:00
6:14 AM,18.5,11.3,73,30.00,10.0,NW,3.5,-,N/A,,Overcast,310,2013-11-27 11:14:00
6:34 AM,18.5,10.9,72,30.00,10.0,Calm,Calm,-,N/A,,Overcast,0,2013-11-27 11:34:00
6:54 AM,18.3,10.8,72,30.01,10.0,NW,5.8,-,N/A,,Overcast,320,2013-11-27 11:54:00
7:14 AM,18.0,10.8,73,30.02,10.0,NW,6.9,-,N/A,,Scattered Clouds,310,2013-11-27 12:14:00
7:34 AM,17.4,10.8,75,30.02,10.0,WNW,4.6,-,N/A,,Clear,300,2013-11-27 12:34:00
7:54 AM,17.2,11.1,77,30.03,10.0,WNW,5.8,-,N/A,,Clear,300,2013-11-27 12:54:00
8:14 AM,18.0,11.3,75,30.03,10.0,WNW,4.6,-,N/A,,Clear,300,2013-11-27 13:14:00
8:34 AM,18.7,11.8,75,30.03,10.0,NW,4.6,-,N/A,,Clear,310,2013-11-27 13:34:00
8:54 AM,19.9,12.6,73,30.03,10.0,NW,6.9,-,N/A,,Clear,310,2013-11-27 13:54:00
9:14 AM,21.2,13.3,72,30.03,10.0,WNW,9.2,-,N/A,,Clear,300,2013-11-27 14:14:00
9:34 AM,22.1,13.8,70,30.03,10.0,NW,6.9,-,N/A,,Clear,310,2013-11-27 14:34:00
9:54 AM,23.2,14.0,68,30.03,10.0,NW,6.9,-,N/A,,Clear,310,2013-11-27 14:54:00
10:14 AM,24.6,14.2,65,30.03,10.0,NW,11.5,17.3,N/A,,Clear,310,2013-11-27 15:14:00
10:34 AM,24.8,13.8,63,30.02,10.0,NW,5.8,17.3,N/A,,Scattered Clouds,320,2013-11-27 15:34:00
10:54 AM,25.3,13.5,61,30.02,10.0,NW,11.5,19.6,N/A,,Mostly Cloudy,310,2013-11-27 15:54:00
11:13 AM,26.2,13.8,59,30.01,10.0,NW,6.9,17.3,N/A,,Mostly Cloudy,320,2013-11-27 16:13:00
11:34 AM,26.6,12.7,56,30.01,10.0,NW,11.5,19.6,N/A,,Mostly Cloudy,320,2013-11-27 16:34:00
11:54 AM,27.0,12.2,54,30.00,10.0,NW,13.8,20.7,N/A,,Mostly Cloudy,320,2013-11-27 16:54:00
12:13 PM,26.8,11.5,53,29.99,10.0,NW,9.2,-,N/A,,Mostly Cloudy,320,2013-11-27 17:13:00
12:34 PM,28.6,12.4,51,29.99,10.0,NW,5.8,17.3,N/A,,Mostly Cloudy,320,2013-11-27 17:34:00
12:54 PM,26.6,10.4,51,29.99,10.0,NNW,10.4,19.6,N/A,,Mostly Cloudy,340,2013-11-27 17:54:00
1:13 PM,27.0,10.6,50,29.99,10.0,NW,5.8,17.3,N/A,,Overcast,320,2013-11-27 18:13:00
1:34 PM,28.8,11.1,48,30.00,10.0,NW,5.8,16.1,N/A,,Overcast,320,2013-11-27 18:34:00
1:54 PM,26.6,10.8,51,30.00,10.0,NW,9.2,18.4,N/A,,Mostly Cloudy,320,2013-11-27 18:54:00
2:13 PM,27.0,10.0,49,30.00,10.0,NNW,9.2,17.3,N/A,,Mostly Cloudy,330,2013-11-27 19:13:00
2:34 PM,28.4,10.4,47,30.00,10.0,NW,9.2,20.7,N/A,,Scattered Clouds,310,2013-11-27 19:34:00
2:54 PM,29.1,10.9,47,30.00,10.0,NNW,6.9,-,N/A,,Mostly Cloudy,330,2013-11-27 19:54:00
3:13 PM,28.8,9.5,45,30.01,10.0,NW,12.7,19.6,N/A,,Mostly Cloudy,310,2013-11-27 20:13:00
3:34 PM,28.0,9.5,46,30.02,10.0,NW,9.2,17.3,N/A,,Mostly Cloudy,310,2013-11-27 20:34:00
3:54 PM,27.0,9.3,48,30.03,10.0,NW,5.8,-,N/A,,Mostly Cloudy,320,2013-11-27 20:54:00
4:14 PM,27.5,9.5,47,30.03,10.0,NW,5.8,-,N/A,,Overcast,310,2013-11-27 21:14:00
4:34 PM,27.5,9.3,46,30.04,10.0,NNW,6.9,-,N/A,,Overcast,330,2013-11-27 21:34:00
4:53 PM,26.6,9.3,48,30.05,10.0,NW,5.8,-,N/A,,Mostly Cloudy,320,2013-11-27 21:53:00
5:14 PM,26.2,9.5,49,30.06,10.0,NW,4.6,-,N/A,,Mostly Cloudy,310,2013-11-27 22:14:00
5:34 PM,26.1,10.2,51,30.07,10.0,WNW,4.6,-,N/A,,Overcast,300,2013-11-27 22:34:00
5:53 PM,25.2,9.7,52,30.08,10.0,NW,3.5,-,N/A,,Overcast,310,2013-11-27 22:53:00
6:14 PM,24.8,9.9,53,30.09,10.0,WNW,4.6,-,N/A,,Mostly Cloudy,300,2013-11-27 23:14:00
6:34 PM,24.1,9.5,54,30.10,10.0,NW,3.5,-,N/A,,Mostly Cloudy,310,2013-11-27 23:34:00
6:54 PM,23.7,9.7,55,30.11,10.0,WNW,3.5,-,N/A,,Mostly Cloudy,300,2013-11-27 23:54:00
7:14 PM,22.8,9.5,57,30.11,10.0,Calm,Calm,-,N/A,,Scattered Clouds,0,2013-11-28 00:14:00
7:34 PM,22.3,9.5,58,30.12,10.0,NW,4.6,-,N/A,,Clear,310,2013-11-28 00:34:00
7:54 PM,22.1,9.1,58,30.13,10.0,NW,3.5,-,N/A,,Clear,320,2013-11-28 00:54:00
8:14 PM,21.4,9.1,59,30.14,10.0,NW,3.5,-,N/A,,Clear,320,2013-11-28 01:14:00
8:34 PM,21.0,8.4,58,30.14,10.0,Calm,Calm,-,N/A,,Clear,0,2013-11-28 01:34:00
8:54 PM,19.2,8.6,63,30.14,10.0,Calm,Calm,-,N/A,,Clear,0,2013-11-28 01:54:00
9:14 PM,17.8,8.6,67,30.14,10.0,Calm,Calm,-,N/A,,Clear,0,2013-11-28 02:14:00
9:34 PM,17.6,9.0,69,30.15,10.0,Calm,Calm,-,N/A,,Clear,0,2013-11-28 02:34:00
9:54 PM,18.7,8.8,65,30.16,10.0,Calm,Calm,-,N/A,,Clear,0,2013-11-28 02:54:00
10:14 PM,16.7,8.6,70,30.16,10.0,Calm,Calm,-,N/A,,Clear,0,2013-11-28 03:14:00
10:33 PM,17.2,9.0,70,30.16,10.0,Calm,Calm,-,N/A,,Clear,0,2013-11-28 03:33:00
10:54 PM,16.7,8.6,70,30.16,10.0,Calm,Calm,-,N/A,,Clear,0,2013-11-28 03:54:00
11:14 PM,16.5,11.3,80,30.17,10.0,Calm,Calm,-,N/A,,Mostly Cloudy,0,2013-11-28 04:14:00
11:33 PM,16.7,11.1,79,30.18,10.0,Calm,Calm,-,N/A,,Scattered Clouds,0,2013-11-28 04:33:00
11:54 PM,16.5,10.0,76,30.18,10.0,Calm,Calm,-,N/A,,Scattered Clouds,0,2013-11-28 04:54:00